Location: Indian Hills
(32.9760°N, 85.9450°W)
Time: 01:24:37
(UTC+00:00)

SL-16 R/B - Pass Details

Date: 09 December 2019
Orbit: 840 x 849 km, 71.0° (Epoch: 28 January)

Event Time Altitude Azimuth Distance (km) Brightness Sun altitude
Rises 00:32:46 0° 215° (SW) 3,387 6.0 -23.6°
Reaches altitude 10° 00:35:17 10° 221° (SW) 2,457 5.3 -24.2°
Maximum altitude 00:40:41 46° 294° (WNW) 1,121 3.1 -25.3°
Enters shadow 00:44:29 19° 360° (N) 1,905 3.9 -26.0°
